When you browse on this site, cookies collect data to enhance your experience and personalize the content and advertising you see.
Visit our Privacy Policy to learn more. By continuing to use the site, you agree to this use of cookies and data.

Hourly Weather Gwatemala

Today, 6 August, Thursday

Time Temperature Precipitation Wind Pressure Humidity
00:00 +16°C° 0 mm 0 mps 637 mmHg 96%
01:00 +18°C° 0.2 mm 1 mps 636 mmHg 96%
02:00 +18°C° 0.2 mm 1 mps 636 mmHg 96%
03:00 +18°C° 0.2 mm 1 mps 636 mmHg 97%
04:00 +16°C° 0 mm 1 mps 635 mmHg 96%
05:00 +16°C° 0 mm 1 mps 635 mmHg 96%
06:00 +16°C° 0 mm 1 mps 636 mmHg 95%
07:00 +19°C° 0.1 mm 1 mps 637 mmHg 91%
08:00 +21°C° 0.1 mm 1 mps 638 mmHg 86%
09:00 +21°C° 0.1 mm 0 mps 638 mmHg 81%
10:00 +24°C° 0.9 mm 1 mps 638 mmHg 80%
11:00 +24°C° 0.9 mm 1 mps 638 mmHg 78%
12:00 +25°C° 0.9 mm 1 mps 638 mmHg 76%
13:00 +25°C° 1.3 mm 1 mps 638 mmHg 79%
14:00 +24°C° 1.3 mm 1 mps 637 mmHg 82%
15:00 +24°C° 1.3 mm 1 mps 637 mmHg 85%
16:00 +21°C° 1.6 mm 0 mps 636 mmHg 88%
17:00 +20°C° 1.6 mm 0 mps 636 mmHg 91%
18:00 +18°C° 1.6 mm 0 mps 636 mmHg 94%
19:00 +18°C° 1.1 mm 0 mps 636 mmHg 94%
20:00 +17°C° 1.1 mm 0 mps 637 mmHg 94%
21:00 +17°C° 1.1 mm 0 mps 637 mmHg 95%
22:00 +17°C° 0.7 mm 0 mps 637 mmHg 95%
23:00 +17°C° 0.7 mm 0 mps 637 mmHg 96%

Tomorrow, 7 August, Friday

Time Temperature Precipitation Wind Pressure Humidity
00:00 +16°C° 0.7 mm 0 mps 637 mmHg 97%
01:00 +16°C° 0.4 mm 0 mps 637 mmHg 97%
02:00 +16°C° 0.4 mm 0 mps 636 mmHg 97%
03:00 +16°C° 0.4 mm 0 mps 636 mmHg 97%
04:00 +16°C° 0.1 mm 0 mps 636 mmHg 97%
05:00 +16°C° 0.1 mm 0 mps 636 mmHg 98%
06:00 +16°C° 0.1 mm 0 mps 636 mmHg 98%
07:00 +16°C° 0.1 mm 0 mps 636 mmHg 97%
08:00 +17°C° 0.1 mm 0 mps 637 mmHg 97%
09:00 +17°C° 0.1 mm 0 mps 638 mmHg 96%
10:00 +21°C° 0.4 mm 1 mps 638 mmHg 92%
11:00 +22°C° 0.4 mm 1 mps 638 mmHg 88%
12:00 +24°C° 0.4 mm 1 mps 638 mmHg 84%
13:00 +23°C° 1.9 mm 1 mps 638 mmHg 87%
14:00 +23°C° 1.9 mm 1 mps 637 mmHg 90%
15:00 +22°C° 1.9 mm 1 mps 637 mmHg 93%
16:00 +21°C° 1.3 mm 1 mps 637 mmHg 95%
17:00 +19°C° 1.3 mm 0 mps 636 mmHg 96%
18:00 +18°C° 1.3 mm 0 mps 636 mmHg 97%
19:00 +17°C° 1.6 mm 0 mps 637 mmHg 97%
20:00 +17°C° 1.6 mm 0 mps 637 mmHg 97%
21:00 +17°C° 1.6 mm 0 mps 638 mmHg 97%
22:00 +19°C° 0.7 mm 1 mps 638 mmHg 97%
23:00 +18°C° 0.7 mm 1 mps 638 mmHg 97%

Day after tomorrow, 8 August, Saturday

Time Temperature Precipitation Wind Pressure Humidity
00:00 +18°C° 0.7 mm 1 mps 638 mmHg 98%
01:00 +18°C° 0.2 mm 1 mps 637 mmHg 98%
02:00 +18°C° 0.2 mm 1 mps 637 mmHg 98%
03:00 +18°C° 0.2 mm 1 mps 637 mmHg 98%
04:00 +18°C° 0 mm 1 mps 637 mmHg 98%
05:00 +18°C° 0 mm 1 mps 637 mmHg 97%
06:00 +16°C° 0 mm 1 mps 637 mmHg 97%
07:00 +19°C° 0 mm 1 mps 638 mmHg 92%
08:00 +21°C° 0 mm 1 mps 638 mmHg 87%
09:00 +22°C° 0 mm 1 mps 639 mmHg 83%
10:00 +23°C° 0.4 mm 1 mps 639 mmHg 80%
11:00 +24°C° 0.4 mm 1 mps 639 mmHg 78%
12:00 +25°C° 0.4 mm 1 mps 640 mmHg 76%
13:00 +25°C° 2 mm 1 mps 639 mmHg 81%
14:00 +24°C° 2 mm 1 mps 638 mmHg 86%
15:00 +23°C° 2 mm 1 mps 638 mmHg 91%
16:00 +23°C° 1.6 mm 1 mps 638 mmHg 92%
17:00 +22°C° 1.6 mm 1 mps 638 mmHg 94%
18:00 +21°C° 1.6 mm 1 mps 638 mmHg 95%
19:00 +20°C° 1 mm 1 mps 638 mmHg 95%
20:00 +19°C° 1 mm 1 mps 638 mmHg 96%
21:00 +18°C° 1 mm 1 mps 638 mmHg 96%
22:00 +18°C° 0.3 mm 1 mps 638 mmHg 96%
23:00 +18°C° 0.3 mm 1 mps 638 mmHg 97%

9 August, Sunday

Time Temperature Precipitation Wind Pressure Humidity
00:00 +18°C° 0.3 mm 1 mps 638 mmHg 98%
01:00 +18°C° 0.1 mm 1 mps 638 mmHg 98%
02:00 +18°C° 0.1 mm 1 mps 637 mmHg 98%
03:00 +16°C° 0.1 mm 2 mps 636 mmHg 97%
04:00 +16°C° 0 mm 2 mps 636 mmHg 97%
05:00 +16°C° 0 mm 2 mps 636 mmHg 97%
06:00 +16°C° 0 mm 2 mps 636 mmHg 97%
07:00 +17°C° 0.1 mm 2 mps 637 mmHg 93%
08:00 +19°C° 0.1 mm 2 mps 638 mmHg 89%
09:00 +20°C° 0.1 mm 2 mps 639 mmHg 86%
10:00 +22°C° 0.6 mm 1 mps 639 mmHg 87%
11:00 +22°C° 0.6 mm 1 mps 639 mmHg 88%
12:00 +23°C° 0.6 mm 1 mps 639 mmHg 89%
13:00 +23°C° 1.1 mm 1 mps 638 mmHg 87%
14:00 +23°C° 1.1 mm 1 mps 638 mmHg 86%
15:00 +22°C° 1.1 mm 0 mps 637 mmHg 84%
16:00 +23°C° 1 mm 1 mps 637 mmHg 88%
17:00 +22°C° 1 mm 1 mps 637 mmHg 91%
18:00 +20°C° 1 mm 1 mps 636 mmHg 94%
19:00 +20°C° 1 mm 1 mps 637 mmHg 95%
20:00 +19°C° 1 mm 1 mps 637 mmHg 96%
21:00 +19°C° 1 mm 1 mps 637 mmHg 97%
22:00 +19°C° 1 mm 1 mps 637 mmHg 97%
23:00 +19°C° 1 mm 1 mps 637 mmHg 97%

10 August, Monday

Time Temperature Precipitation Wind Pressure Humidity
00:00 +18°C° 1 mm 1 mps 637 mmHg 98%
01:00 +18°C° 0 mm 1 mps 637 mmHg 97%
02:00 +18°C° 0 mm 1 mps 636 mmHg 97%
03:00 +16°C° 0 mm 1 mps 636 mmHg 97%
04:00 +16°C° 0.1 mm 1 mps 636 mmHg 97%
05:00 +16°C° 0.1 mm 1 mps 636 mmHg 96%
06:00 +16°C° 0.1 mm 1 mps 636 mmHg 96%
07:00 +18°C° 0.1 mm 1 mps 637 mmHg 94%
08:00 +19°C° 0.1 mm 1 mps 637 mmHg 92%
09:00 +21°C° 0.1 mm 1 mps 638 mmHg 91%
10:00 +21°C° 0.6 mm 1 mps 638 mmHg 90%
11:00 +21°C° 0.6 mm 1 mps 638 mmHg 89%
12:00 +22°C° 0.6 mm 1 mps 637 mmHg 88%
13:00 +22°C° 0.4 mm 1 mps 637 mmHg 87%
14:00 +23°C° 0.4 mm 1 mps 637 mmHg 85%
15:00 +23°C° 0.4 mm 1 mps 636 mmHg 83%
16:00 +22°C° 0.9 mm 1 mps 636 mmHg 87%
17:00 +21°C° 0.9 mm 1 mps 636 mmHg 90%
18:00 +20°C° 0.9 mm 1 mps 636 mmHg 94%
19:00 +20°C° 0.8 mm 1 mps 636 mmHg 95%
20:00 +19°C° 0.8 mm 1 mps 637 mmHg 96%
21:00 +19°C° 0.8 mm 1 mps 637 mmHg 97%
22:00 +19°C° 0.2 mm 1 mps 637 mmHg 97%
23:00 +19°C° 0.2 mm 1 mps 637 mmHg 97%

11 August, Tuesday

Time Temperature Precipitation Wind Pressure Humidity
00:00 +18°C° 0.2 mm 1 mps 636 mmHg 97%
01:00 +18°C° 0 mm 1 mps 636 mmHg 96%
02:00 +17°C° 0 mm 2 mps 635 mmHg 96%
03:00 +17°C° 0 mm 2 mps 635 mmHg 96%
04:00 +18°C° 0 mm 1 mps 635 mmHg 95%
05:00 +18°C° 0 mm 1 mps 635 mmHg 94%
06:00 +18°C° 0 mm 1 mps 635 mmHg 94%
07:00 +19°C° 0 mm 1 mps 636 mmHg 91%
08:00 +20°C° 0 mm 1 mps 636 mmHg 89%
09:00 +20°C° 0 mm 1 mps 637 mmHg 87%
10:00 +21°C° 0.3 mm 1 mps 637 mmHg 87%
11:00 +21°C° 0.3 mm 1 mps 637 mmHg 87%
12:00 +22°C° 0.3 mm 1 mps 637 mmHg 87%
13:00 +22°C° 0.6 mm 1 mps 637 mmHg 86%
14:00 +23°C° 0.6 mm 1 mps 636 mmHg 84%
15:00 +23°C° 0.6 mm 1 mps 636 mmHg 83%
16:00 +22°C° 0.7 mm 1 mps 636 mmHg 87%
17:00 +21°C° 0.7 mm 1 mps 636 mmHg 91%
18:00 +19°C° 0.7 mm 1 mps 636 mmHg 95%
19:00 +19°C° 0.6 mm 1 mps 636 mmHg 96%
20:00 +18°C° 0.6 mm 2 mps 636 mmHg 96%
21:00 +17°C° 0.6 mm 2 mps 637 mmHg 97%
22:00 +17°C° 0.1 mm 2 mps 636 mmHg 97%
23:00 +17°C° 0.1 mm 2 mps 636 mmHg 97%
Show more